Weather History for KSJT - October, 2013

Change the Weather History Date:

Monday, October 21, 2013

  Actual Average Record
Temperature  
Mean Temperature 62 °F 65 °F  
Max Temperature 71 °F 77 °F 95 °F (1914)
Min Temperature 52 °F 52 °F 30 °F (1911)
Degree Days  
Heating Degree Days 3 3  
Month to date heating degree days 55 38  
Since 1 July heating degree days 55 47  
Cooling Degree Days 0 3  
Month to date cooling degree days 112 96  
Year to date cooling degree days 2826 2461  
Growing Degree Days 12 (Base 50)    
Moisture  
Dew Point 53 °F    
Average Humidity 73    
Maximum Humidity 93    
Minimum Humidity 53    
Precipitation  
Precipitation 0.00 in 0.09 in 1.74 in (1972)
Month to date precipitation 1.39 1.94  
Year to date precipitation 17.77 18.47  
Snow  
Snow 0.00 in 0.00 in 0.00 in (2002)
Month to date snowfall 0.0 0.0  
Since 1 July snowfall 0.0 0.0  
Snow Depth 0.00 in    
Sea Level Pressure  
Sea Level Pressure 29.99 in    
Wind  
Wind Speed 8 mph (NNW)    
Max Wind Speed 17 mph    
Max Gust Speed 23 mph    
Visibility 10 miles    
Events      
T = Trace of Precipitation, MM = Missing Value Source: NWS Daily Summary

Daily Weather History Graph

Daily Weather History Graph

Search for Another Location

Airport or City:

Trip Planner

Search our weather history database for the weather conditions in past years. The results will help you decide how hot, cold, wet, or windy it might be!

Date:

Astronomy

Oct. 21, 2013 Rise Set
Actual Time 7:49 AM CDT 7:03 PM CDT
Civil Twilight 7:24 AM CDT 7:27 PM CDT
Nautical Twilight 6:56 AM CDT 7:56 PM CDT
Astronomical Twilight 6:28 AM CDT 8:24 PM CDT
Moon 9:06 PM CDT (10/21) 10:17 AM CDT (10/21)
Length of Visible Light 12h 03m
Length of Day
11h 13m
Waning Gibbous, 92% of the Moon is Illuminated
Oct 21
Waning Gibbous
Oct 26
Last Quarter
Nov 3
New
Nov 9
First Quarter
Nov 17
Full

Hourly Weather History & Observations

Time (CDT) Temp. Dew Point Humidity Pressure Visibility Wind Dir Wind Speed Gust Speed Precip Events Conditions
12:51 AM 61.0 °F 54.0 °F 78% 29.87 in 10.0 mi SSW 9.2 mph - N/A   Clear
1:51 AM 57.9 °F 54.0 °F 87% 29.86 in 10.0 mi SW 6.9 mph - N/A   Clear
2:51 AM 57.9 °F 54.0 °F 87% 29.87 in 10.0 mi Calm Calm - N/A   Clear
3:51 AM 57.9 °F 54.0 °F 87% 29.86 in 10.0 mi SSW 5.8 mph - N/A   Clear
4:51 AM 59.0 °F 55.0 °F 87% 29.85 in 10.0 mi South 8.1 mph - N/A   Clear
5:51 AM 57.9 °F 55.9 °F 93% 29.86 in 10.0 mi SSW 8.1 mph - N/A   Clear
6:51 AM 57.0 °F 55.0 °F 93% 29.88 in 10.0 mi SSW 5.8 mph - N/A   Clear
7:51 AM 55.0 °F 54.0 °F 96% 29.94 in 9.0 mi NNW 10.4 mph - N/A   Mostly Cloudy
8:21 AM 57.2 °F 55.4 °F 94% 29.98 in 10.0 mi NNW 6.9 mph - N/A   Overcast
8:51 AM 59.0 °F 55.9 °F 90% 29.96 in 10.0 mi NNW 5.8 mph - N/A   Overcast
9:29 AM 60.8 °F 55.4 °F 82% 30.01 in 10.0 mi North 5.8 mph - N/A   Overcast
9:51 AM 60.1 °F 55.9 °F 86% 29.99 in 10.0 mi Calm Calm - N/A   Overcast
10:51 AM 61.0 °F 57.0 °F 87% 30.00 in 10.0 mi West 4.6 mph - N/A   Overcast
11:51 AM 64.9 °F 57.0 °F 75% 30.01 in 10.0 mi WNW 4.6 mph - N/A   Overcast
12:00 PM 64.4 °F 55.4 °F 73% 30.04 in 10.0 mi NNW 11.5 mph - N/A   Overcast
12:07 PM 64.4 °F 55.4 °F 73% 30.05 in 10.0 mi North 10.4 mph - N/A   Overcast
12:38 PM 64.4 °F 53.6 °F 68% 30.05 in 10.0 mi North 11.5 mph - N/A   Overcast
12:51 PM 66.9 °F 54.0 °F 63% 30.01 in 10.0 mi North 10.4 mph - N/A   Mostly Cloudy
1:51 PM 68.0 °F 53.1 °F 59% 30.01 in 10.0 mi North 11.5 mph 16.1 mph N/A   Scattered Clouds
2:51 PM 70.0 °F 52.0 °F 53% 29.99 in 10.0 mi North 11.5 mph - N/A   Partly Cloudy
3:51 PM 69.1 °F 52.0 °F 54% 29.99 in 10.0 mi North 11.5 mph - N/A   Mostly Cloudy
4:51 PM 69.1 °F 51.1 °F 53% 30.01 in 10.0 mi NNE 12.7 mph - N/A   Mostly Cloudy
5:51 PM 68.0 °F 51.1 °F 55% 30.02 in 10.0 mi NNE 15.0 mph - N/A   Partly Cloudy
6:51 PM 64.0 °F 50.0 °F 60% 30.04 in 10.0 mi NNE 12.7 mph - N/A   Scattered Clouds
7:51 PM 61.0 °F 50.0 °F 67% 30.07 in 10.0 mi NNE 9.2 mph - N/A   Clear
8:51 PM 57.0 °F 50.0 °F 77% 30.10 in 10.0 mi NNE 5.8 mph - N/A   Clear
9:51 PM 55.0 °F 48.9 °F 80% 30.12 in 10.0 mi NNE 6.9 mph - N/A   Clear
10:51 PM 54.0 °F 48.9 °F 83% 30.14 in 10.0 mi NNE 6.9 mph - N/A   Clear
11:51 PM 53.1 °F 48.9 °F 86% 30.16 in 10.0 mi NNE 5.8 mph - N/A   Clear